Location: Bronnegerveen
(52.9548°N, 6.8388°E)
Time: 02:01:13
(UTC+00:00)

SL-24 R/B - RUBIN 2 - Pass Details

Date: 15 June 2025
Orbit: 589 x 999 km, 64.6° (Epoch: 07 July)

Event Time Altitude Azimuth Distance (km) Brightness Sun altitude
Rises 01:11:02 0° 313° (NW) 3,203 7.5 -10.8°
Reaches altitude 10° 01:13:41 10° 305° (NW) 2,205 6.5 -10.7°
Maximum altitude 01:18:11 35° 240° (WSW) 1,065 4.4 -10.4°
Drops below altitude 10° 01:22:17 10° 174° (S) 2,001 5.7 -10.1°
Enters shadow 01:22:26 - 173° (S) 2,055 5.7 -10.1°
